Location: Bacharowice
(49.9333°N, 19.5833°E)
Time: 02:02:56
(UTC+00:00)

Cosmos 1943 Rocket - Pass Details

Date: 11 May 2021
Orbit: 814 x 842 km, 71.0° (Epoch: 24 June)

Event Time Altitude Azimuth Distance (km) Brightness Sun altitude
Exits shadow 22:13:49 29° 227° (SW) 1,488 3.2 -21.7°
Maximum altitude 22:16:43 66° 302° (WNW) 906 2.4 -21.8°
Drops below altitude 10° 22:22:18 10° 25° (NNE) 2,443 5.4 -21.9°
Sets 22:24:45 0° 28° (NNE) 3,375 6.3 -21.9°
